Dewpoint
14 13 16 17 16 15 14 14 14 15 16 17 18 18 18 20 21 21 22 26 32 34 36 40 43 46 51 57 61 63 63 65 65 64 63 61 59 59 59 62 66 67 70 70
19 17 18 14 14 15 16 16 16 18 19 18 18 18 19 20 22 24 27 29 30 32 36 40 42 48 54 57 61 62 63 64 63 64 65 65 62 59 61 61 63 66 68 70
16 17 18 13 14 16 17 16 17 18 19 19 19 19 20 19 22 27 30 31 32 34 37 38 40 45 47 52 58 61 63 63 62 65 63 64 64 63 61 61 65 68 67 64
14 17 16 16 16 17 19 16 18 18 19 17 22 18 23 19 21 23 28 30 31 33 36 34 37 42 45 46 52 59 62 62 60 63 62 64 64 62 60 62 57 70 68 63
17 16 16 17 15 19 19 21 22 22 20 21 17 14 17 18 15 16 25 28 28 28 34 36 35 39 41 44 48 57 60 61 61 61 62 62 64 64 65 66 66 68 66 61
18 19 17 20 19 18 20 21 21 20 17 15 13 13 10 12 20 20 24 25 27 30 35 35 37 40 43 48 49 50 56 61 59 59 60 61 62 63 64 65 64 64 65 64
23 21 21 22 21 21 20 22 21 18 17 13 18 14 24 28 27 27 28 32 35 39 37 36 34 37 43 46 49 50 52 55 58 57 58 59 59 61 62 64 65 64 64 65
25 23 22 24 22 22 21 23 19 19 18 15 18 16 23 27 28 31 34 37 42 44 45 43 44 46 38 42 51 51 53 54 57 57 57 58 60 59 61 63 64 63 65 63
25 24 27 25 25 22 19 22 22 22 21 20 16 18 19 24 24 30 36 39 41 43 42 42 47 51 41 43 48 48 50 54 54 53 56 57 58 59 60 61 62 63 63 62
30 27 27 23 25 25 25 23 23 23 24 18 15 17 14 25 24 29 30 34 38 41 41 44 44 49 52 46 48 53 52 53 52 53 54 54 57 57 60 59 60 61 63 61
30 31 29 28 23 21 19 17 19 23 22 22 18 17 25 28 27 35 36 34 40 41 39 40 44 47 49 51 44 49 50 48 50 51 52 55 55 57 59 59 59 59 59 58
35 34 28 24 23 20 21 22 23 31 25 26 29 27 24 24 29 33 34 37 41 42 40 41 45 48 50 47 43 44 48 46 47 49 50 52 55 57 58 58 57 56 54 54
37 30 28 22 23 25 26 23 22 27 33 26 24 22 23 24 32 34 36 35 37 39 42 44 46 47 44 42 44 43 46 46 47 48 48 49 52 56 56 57 55 53 52 51
35 34 25 21 20 26 25 20 19 25 35 23 19 19 23 33 35 34 36 37 37 38 40 40 40 41 42 42 44 44 46 47 46 47 47 48 51 54 56 55 52 50 49 48
38 34 33 30 27 24 22 21 20 19 19 24 20 18 30 34 35 36 36 35 34 35 35 38 40 41 40 42 45 44 46 46 47 46 46 48 49 53 54 51 49 48 48 48
37 39 34 32 28 23 22 21 18 18 18 19 21 23 30 37 36 35 35 34 34 36 36 36 37 38 39 42 43 44 45 46 47 46 46 47 49 52 50 48 47 46 46 46
39 40 34 28 26 28 25 24 21 21 22 24 26 28 34 37 37 37 37 36 37 37 38 38 40 40 43 43 44 44 45 45 46 47 46 46 49 49 47 46 45 45 45 44
36 41 35 35 30 27 25 26 24 25 26 28 30 36 37 37 37 37 36 38 38 38 39 40 41 42 44 43 43 44 45 46 46 46 46 48 49 46 45 44 44 44 44 44
39 40 38 35 34 28 25 30 31 29 27 35 38 38 38 38 37 35 40 41 41 40 42 42 43 44 44 45 46 45 45 45 45 45 48 48 46 44 44 43 43 44 44 44
38 40 39 33 32 22 26 30 32 31 28 39 38 36 36 37 39 37 42 41 40 43 43 44 43 43 44 46 47 46 44 44 44 47 47 46 44 43 42 43 43 44 44 43
34 36 35 34 34 31 30 34 34 31 34 39 36 37 38 39 41 42 43 41 42 42 43 43 41 41 43 43 45 43 44 44 47 46 45 44 43 43 43 44 44 44 43 45
31 33 34 35 33 31 35 34 35 40 41 39 38 39 41 42 42 41 41 41 41 41 41 40 40 41 44 44 45 44 45 47 46 44 43 43 43 44 44 44 44 44 46 46
34 34 40 35 32 41 39 40 43 43 39 40 41 41 41 41 41 40 41 41 41 41 40 41 41 40 42 44 43 43 44 46 44 43 43 43 43 43 44 45 46 48 48 45
32 35 38 36 35 35 37 37 38 42 42 43 41 41 41 41 40 40 41 40 40 39 39 39 40 40 41 42 43 45 46 44 43 42 42 43 43 44 45 47 44 42 43 41
33 34 32 34 34 37 36 39 41 40 42 42 41 42 41 40 40 39 38 39 40 40 40 41 40 40 42 43 46 45 44 43 42 42 43 43 45 44 40 38 40 38 37 39
34 36 41 39 39 38 38 40 40 41 41 41 40 40 40 40 38 38 39 40 40 40 40 40 41 41 43 45 45 44 43 43 43 42 43 46 42 40 39 38 38 37 37 36
Lifted_Index
5 5 4 5 5 5 4 3 3 3 4 4 5 5 5 4 3 3 3 3 3 3 3 3 3 3 2 1 0 -1 -1 -2 -3 -3 -4 -3 -3 -2 -2 -3 -4 -4 -6 -7
4 4 4 5 5 5 4 4 4 4 4 5 5 5 4 3 3 3 3 3 2 2 2 3 3 2 2 1 0 -1 -1 -2 -2 -3 -4 -4 -3 -2 -3 -3 -4 -5 -6 -6
4 4 5 5 5 5 5 5 5 5 5 5 4 4 3 2 2 2 2 2 2 2 2 3 3 3 2 1 0 -0 -1 -1 -2 -2 -3 -4 -4 -4 -3 -4 -4 -5 -5 -5
5 5 5 5 5 5 5 5 5 5 5 4 3 2 1 1 1 1 1 1 1 1 2 3 3 3 3 2 1 -0 -1 -1 -1 -2 -3 -4 -5 -5 -5 -5 -5 -6 -5 -4
5 5 5 5 5 5 5 6 6 5 4 3 2 1 0 -0 0 0 0 -0 0 0 1 1 2 2 2 1 1 -0 -0 -1 -1 -1 -2 -3 -4 -5 -6 -6 -6 -5 -4 -3
5 5 5 5 5 6 6 5 5 4 3 2 1 0 0 0 1 1 0 0 0 -0 -1 -0 -0 0 0 -0 -1 -1 -1 -1 -1 -1 -1 -2 -3 -4 -6 -6 -6 -4 -2 -1
4 4 5 5 5 5 5 5 4 3 2 1 1 1 1 1 1 1 1 1 0 -0 -1 -1 -0 -0 -0 -1 -2 -1 -1 -1 -1 -1 -1 -2 -2 -3 -4 -5 -5 -3 -2 -1
3 4 4 5 5 5 5 4 3 2 2 2 2 1 1 1 2 1 1 1 0 -0 -0 0 -0 -0 -0 -1 -1 -1 -1 -0 -1 -1 -1 -1 -2 -2 -3 -4 -4 -3 -2 -1
4 3 4 4 4 5 5 4 3 3 2 2 2 1 1 1 1 1 1 1 0 0 0 0 -0 -0 -0 -1 -1 -0 -0 -0 -1 -1 -1 -1 -1 -1 -2 -3 -3 -3 -2 -2
4 4 4 4 4 4 4 4 3 3 2 2 2 2 1 1 1 1 0 0 0 -0 -0 -0 -0 -0 -0 -0 -0 -0 -0 -1 -1 -1 -1 -1 -1 -1 -1 -2 -2 -2 -2 -2
5 4 4 4 4 4 4 4 4 3 2 2 2 2 1 0 -0 -0 0 0 0 -0 -0 -0 0 0 0 0 -0 -0 -0 -0 -1 -0 -0 -0 -0 -0 -1 -1 -1 -0 -0 -0
5 4 4 4 4 4 4 4 4 3 3 2 2 2 1 -0 -1 -1 -0 0 0 0 0 0 0 0 1 1 1 0 0 0 0 0 1 1 0 0 -0 -0 0 1 2 1
5 5 4 4 4 4 4 3 3 3 2 2 2 2 0 -1 -1 -1 -1 0 1 1 0 0 0 0 1 1 1 1 1 1 1 1 1 1 1 0 0 0 2 3 3 2
5 5 4 4 4 4 4 3 3 3 2 2 2 1 -1 -1 -1 -1 -0 0 1 1 1 1 1 1 1 1 2 2 2 2 2 2 2 2 1 0 0 1 3 3 3 3
5 4 4 4 4 4 4 4 3 3 3 2 1 -0 -1 -1 -0 -0 0 1 1 1 2 2 2 3 3 3 3 3 3 3 3 3 3 2 2 1 1 2 3 4 4 3
4 4 4 4 4 4 3 3 3 3 3 2 1 -0 -1 -0 0 0 1 1 2 2 2 3 3 4 4 4 5 5 5 4 4 4 4 3 2 2 2 3 4 4 4 4
4 4 4 4 3 3 3 3 3 3 3 2 1 1 0 0 1 1 1 2 2 3 3 4 4 5 5 5 6 6 6 6 5 5 4 3 3 3 4 5 5 5 5 5
4 4 4 4 3 3 3 3 3 3 2 2 1 1 1 1 1 2 2 2 3 4 5 5 5 5 6 6 7 7 7 6 6 5 4 4 3 4 5 5 5 5 6 7
4 4 4 4 3 3 3 3 3 2 2 2 1 1 1 2 2 2 2 3 4 5 6 6 7 7 7 7 7 7 7 7 6 5 5 5 4 5 5 6 6 7 8 8
3 3 3 3 3 3 2 2 2 2 2 2 2 2 2 2 2 3 3 4 5 6 7 8 8 8 8 7 7 7 7 7 6 6 6 6 6 6 6 7 8 9 10 10
3 3 3 3 2 2 2 2 2 2 2 2 2 2 2 2 2 3 4 5 6 7 8 9 10 10 9 8 8 8 8 7 7 6 6 7 7 7 8 9 10 10 10 10
2 2 2 2 2 1 1 2 2 2 2 2 2 2 2 3 3 4 5 6 7 9 10 10 11 10 10 10 9 9 8 8 7 7 7 8 8 9 10 10 10 10 9 9
2 2 2 2 2 1 1 2 2 2 2 2 2 2 3 3 4 5 6 7 8 9 10 11 11 11 10 10 10 9 9 8 8 8 8 9 10 10 10 10 9 9 8 7
2 2 2 2 2 2 2 2 2 2 2 2 2 3 4 4 5 6 7 8 8 9 9 9 10 10 10 10 9 9 9 8 8 8 9 10 10 10 10 10 9 9 8 8
3 3 3 3 2 2 2 2 2 2 2 2 2 3 4 6 7 8 8 8 8 8 8 9 9 9 9 9 9 9 9 8 8 9 9 10 10 11 11 11 10 10 9 9
3 3 3 3 2 2 2 2 2 2 2 3 3 4 5 6 8 8 9 9 8 7 8 8 9 9 9 9 9 9 9 9 9 9 10 10 10 11 11 11 11 10 10 10